カタログに戻る

STARLINK-31758

運用中通信VLEO
NORAD 59621·PAYLOAD·🇺🇸 United States

打ち上げ Apr 28, 2024 から Cape Canaveral Space Force Station

Loading…

次のパス (今後24時間)

TLE

最新Source: CelesTrak SupGP

元期: Sep 15, 2026, 02:26 UTC

1 59621C 24080W   26258.10187500 -.00020659  00000+0 -74820-3 0  2587
2 59621  43.0009  44.3743 0001594 269.6284 141.4851 15.27591225    16

AllMySatでSTARLINK-31758をリアルタイム追跡

Download on the App Store